This is the latest recevied weather packets stored in our database for station/object W5ADC. If no packets are shown the sender has not sent any weather packets the latest 10 day(s).
| Time | Temp. | Humidity | Pressure | Rain* | Wind** | Luminosity | Snow |
|---|---|---|---|---|---|---|---|
| 1777939466 | 25.56° C | 63% | 1002.4 hPa | 0 mm | - | 103 W/m² | - |
| 1777939162 | 25.56° C | 63% | 1002.6 hPa | 0 mm | - | 85 W/m² | - |
| 1777938860 | 25.56° C | 63% | 1002.4 hPa | 0 mm | - | 99 W/m² | - |
| 1777938555 | 25.56° C | 63% | 1002.6 hPa | 0 mm | - | 126 W/m² | - |
| 1777938253 | 25.56° C | 63% | 1002.9 hPa | 0 mm | - | 144 W/m² | - |
| 1777937950 | 25.56° C | 62% | 1002.6 hPa | 0 mm | - | 124 W/m² | - |
| 1777937645 | 25.56° C | 62% | 1002.7 hPa | 0 mm | - | 111 W/m² | - |
| 1777937342 | 25.56° C | 62% | 1002.5 hPa | 0 mm | - | 106 W/m² | - |
| 1777937039 | 25.56° C | 62% | 1002.7 hPa | 0 mm | - | 113 W/m² | - |
| 1777936736 | 26.11° C | 62% | 1002.6 hPa | 0 mm | - | 131 W/m² | - |
| 1777936432 | 26.11° C | 62% | 1002.8 hPa | 0 mm | - | 132 W/m² | - |
| 1777936129 | 26.11° C | 61% | 1002.9 hPa | 0 mm | - | 105 W/m² | - |
| 1777935827 | 26.67° C | 61% | 1002.9 hPa | 0 mm | - | 123 W/m² | - |
| 1777935525 | 26.67° C | 60% | 1003 hPa | 0 mm | - | 203 W/m² | - |
| 1777935221 | 26.67° C | 60% | 1003 hPa | 0 mm | - | 234 W/m² | - |
| 1777934919 | 26.67° C | 59% | 1003.1 hPa | 0 mm | - | 299 W/m² | - |
| 1777934615 | 26.67° C | 60% | 1003 hPa | 0 mm | - | 294 W/m² | - |
| 1777934312 | 26.67° C | 60% | 1003.1 hPa | 0 mm | - | 274 W/m² | - |
| 1777934008 | 26.67° C | 59% | 1003.1 hPa | 0 mm | - | 350 W/m² | - |
| 1777933704 | 26.67° C | 59% | 1003.1 hPa | 0 mm | - | 359 W/m² | - |
| 1777933401 | 26.67° C | 59% | 1003 hPa | 0 mm | - | 291 W/m² | - |
| 1777933100 | 27.22° C | 58% | 1002.9 hPa | 0 mm | - | 414 W/m² | - |
| 1777932796 | 27.22° C | 58% | 1003.1 hPa | 0 mm | - | 417 W/m² | - |
| 1777932493 | 27.22° C | 58% | 1003.3 hPa | 0 mm | - | 481 W/m² | - |
| 1777932190 | 26.67° C | 58% | 1003.3 hPa | 0 mm | - | 462 W/m² | - |
* Rain latest hour (hover to see other rain measurements)
** Current wind speed in m/s (hover to see current wind gust speed)